User: anonymous   Login
Location: Bowman Observatory
(41.0326°N, 73.6210°W)
Time: 05:25:51
(UTC-04:00)
Language:

Cosmos 2298 Rocket - Orbit

View from above orbital plane
View from above orbital plane
View from above satellite
View from above satellite

Ground track
Ground track

The orbit data is extracted from the following two-line orbital elements,

1 23432U 94083B   15144.47354615  .00000057  00000-0  30042-4 0  9993
2 23432 074.0332 237.9993 0006454 269.8754 166.1986 14.33386675 68161
Epoch (UTC): 24 May 2015 11:21:54
Eccentricity: 0.0006454
inclination: 74.0332°
perigee height: 776 km
apogee height: 785 km
right ascension of ascending node: 237.9993°
argument of perigee: 269.8754°
revolutions per day: 14.33386675
mean anomaly at epoch: 166.1986°
orbit number at epoch: 6816

The dashed part of the orbit path shows where the satellite is in the earth's shadow,  

DLR